星链-4362 (STARLINK-4362 )

导读

STARLINK-4362是美国SpaceX公司星链星座的成员,由猎鹰9号火箭于2022年7月11日发射入轨。卫星重约297千克,运行在约548公里高度近地轨道,属于星链星座的组网卫星。它承担太空互联网接入任务,为全球偏远地区、海洋等传统网络覆盖盲区提供高速低时延宽带通信服务,支撑星链低轨星座全球互联的建设目标,目前在轨稳定运行。

Basic Information
目录编号:
53043
目录名称:
STARLINK-4362
国际标识:
2022-077A
轨道中心:
EARTH
卫星名称:
星链-4362
卫星全名:
星链-4362 (STARLINK-4362 )
卫星状态:
在轨 (已飞行1516 天)
发射日期:
2022-07-11 UTC
国别 :
美国 (US)
星等 :
--
Orbit Information
数据来源 国际轨道数据
星历时间: 2026-09-04T12:00:02+0800
6小时前
查看轨道信息
半长轴: 6845.42km
偏心率: 0.0001426
轨道倾角: 97.285°
近地点辐角 86.417°
升交点赤经 62.198°
平近点角 275.733°
近地点: 466.306km
远地点: 468.26km
周期: 93.942分钟
每日圈数: 15.328606
Detailed Information
固有亮度:
5
最大亮度:
2.5
卫星平台:
Starlink v1.5
覆盖范围:
全球
运营商:
太空探索技术公司
运营商所在国:
美国
制造商(研发单位):
太空探索技术公司
制造商所在国:
美国
使用方式:
暂无
Satellite Introduction
星链(Starlink)计划是由太空探索技术公司(SpaceX)提出的一个巨型低轨卫星互联网星座项目,计划在2019年至2024年间在太空搭建由约1.2万颗卫星组成的“星链”网络,其中1584颗将部署在地球上空550千米处的近地轨道,并从2020年开始工作。该卫星仍在工作。
2D Orbit Map
3D Orbit Map
Orbit Altitude Analysis Chart
Orbit Inclination Analysis Chart
Orbit Comprehensive Analysis Chart
View Comprehensive Chart
Conjunction Data List
Event ID Objects TCA Miss Dist (km) Collision Risk Probability Collision Risk Index (CRI) Action
CDM_260904-190604-831405-304321
2026-09-04T
19:06:20+0000
0.570 km
远距离
1.236777E-4 高风险 0.77
CDM_260905-132704-799705-304321
2026-09-05T
13:27:25+0000
0.791 km
远距离
5.522988E-5 中风险 0.7
CDM_260905-073804-831405-304321
2026-09-05T
07:38:28+0000
0.987 km
远距离
2.310061E-5 中风险 0.62
CDM_260904-144505-304305-384021
2026-09-04T
14:45:14+0000
1.328 km
极远距离
9.647774E-6 低风险 0.55
CDM_260904-232305-304306-276321
2026-09-04T
23:23:39+0000
1.342 km
极远距离
9.482412E-6 低风险 0.55
CDM_260905-084505-304306-281421
2026-09-05T
08:45:42+0000
1.346 km
极远距离
9.119665E-6 低风险 0.54
CDM_260904-120304-831405-304321
2026-09-04T
12:03:16+0000
1.509 km
极远距离
5.2892E-6 低风险 0.49
CDM_260905-115505-304306-797421
2026-09-05T
11:55:15+0000
1.633 km
极远距离
5.160286E-6 低风险 0.49
CDM_260904-204004-831405-304321
2026-09-04T
20:40:21+0000
1.608 km
极远距离
4.362592E-6 低风险 0.48
CDM_260905-091204-831405-304321
2026-09-05T
09:12:29+0000
1.690 km
极远距离
3.800176E-6 低风险 0.47